Dyersburg, TN

5:31 PM CDT on September 24, 2017 (GMT -0500)
Dyersburg Municipal

Weather History for KDYR - November, 2012

Change the Weather History Date:

Monday, November 12, 2012

  Actual Average Record
Temperature  
Mean Temperature 43 °F -  
Max Temperature 53 °F 56 °F 78 °F (2010)
Min Temperature 33 °F 40 °F 30 °F (1998)
Degree Days  
Heating Degree Days 22    
Moisture  
Dew Point 30 °F    
Average Humidity 62    
Maximum Humidity 77    
Minimum Humidity 37    
Precipitation  
Precipitation 0.77 in - - ()
Sea Level Pressure  
Sea Level Pressure 30.35 in    
Wind  
Wind Speed 7 mph (NW)    
Max Wind Speed 16 mph    
Max Gust Speed 22 mph    
Visibility 10 miles    
Events      
Averages and records for this station are not official NWS values.
T = Trace of Precipitation, MM = Missing Value Source: NWS Daily Summary

Daily Weather History Graph

Daily Weather History Graph

Search for Another Location

Airport or City:

Trip Planner

Search our weather history database for the weather conditions in past years. The results will help you decide how hot, cold, wet, or windy it might be!

Date:

Astronomy

Nov. 12, 2012 Rise Set
Actual Time 6:31 AM CST 4:51 PM CST
Civil Twilight 6:04 AM CST 5:18 PM CST
Nautical Twilight 5:33 AM CST 5:49 PM CST
Astronomical Twilight 5:03 AM CST 6:19 PM CST
Moon 4:58 AM CST (11/12) 3:55 PM CST (11/12)
Length of Visible Light 11h 14m
Length of Day
10h 20m
Waning Crescent, 2% of the Moon is Illuminated
Nov 12
Waning Crescent
Nov 13
New
Nov 20
First Quarter
Nov 28
Full
Dec 6
Last Quarter

Hourly Weather History & Observations

Time (CST) Temp. Windchill Dew Point Humidity Pressure Visibility Wind Dir Wind Speed Gust Speed Precip Events Conditions
12:15 AM 53.6 °F - 46.4 °F 77% 30.05 in 10.0 mi North 5.8 mph - N/A   Mostly Cloudy
12:35 AM 53.6 °F - 46.4 °F 77% 30.10 in 10.0 mi WNW 8.1 mph - N/A   Mostly Cloudy
12:55 AM 53.6 °F - 46.4 °F 77% 30.06 in 10.0 mi NNW 9.2 mph - 0.31 in   Overcast
1:16 AM 51.8 °F - 44.6 °F 76% 30.13 in 10.0 mi WNW 6.9 mph - 0.04 in   Mostly Cloudy
1:35 AM 51.8 °F - 44.6 °F 76% 30.08 in 10.0 mi North 9.2 mph - 0.11 in   Overcast
1:55 AM 51.8 °F - 44.6 °F 76% 30.11 in 10.0 mi WNW 4.6 mph - 0.17 in   Overcast
2:35 AM 51.8 °F - 44.6 °F 76% 30.11 in 10.0 mi NNW 4.6 mph - 0.11 in   Mostly Cloudy
2:55 AM 51.8 °F - 44.6 °F 76% 30.15 in 10.0 mi West 4.6 mph - 0.15 in   Mostly Cloudy
3:15 AM 51.8 °F - 44.6 °F 76% 30.13 in 10.0 mi Calm Calm - 0.08 in   Overcast
3:35 AM 51.8 °F - 44.6 °F 76% 30.13 in 10.0 mi WNW 5.8 mph - 0.10 in   Overcast
3:55 AM 51.8 °F - 44.6 °F 76% 30.14 in 10.0 mi West 4.6 mph - 0.10 in   Overcast
4:35 AM 46.4 °F 41.9 °F 39.2 °F 76% 30.19 in 7.0 mi NNW 9.2 mph - 0.01 in   Overcast
4:55 AM 46.4 °F 41.9 °F 37.4 °F 71% 30.19 in 9.0 mi NNW 9.2 mph - 0.03 in   Overcast
5:15 AM 44.6 °F 38.4 °F 37.4 °F 76% 30.21 in 10.0 mi NW 12.7 mph 18.4 mph N/A   Overcast
5:36 AM 44.6 °F 38.4 °F 35.6 °F 71% 30.23 in 5.0 mi NW 12.7 mph 21.9 mph 0.01 in   Overcast
6:15 AM 42.8 °F 37.5 °F 33.8 °F 70% 30.26 in 7.0 mi NW 9.2 mph - N/A   Overcast
6:55 AM 41.0 °F 34.7 °F 30.2 °F 65% 30.30 in 10.0 mi NW 10.4 mph 18.4 mph N/A   Overcast
7:15 AM 39.2 °F 31.2 °F 30.2 °F 70% 30.31 in 10.0 mi NW 13.8 mph 21.9 mph N/A   Overcast
7:36 AM 39.2 °F 32.5 °F 30.2 °F 70% 30.33 in 10.0 mi NW 10.4 mph 18.4 mph N/A   Overcast
7:55 AM 39.2 °F 31.6 °F 28.4 °F 65% 30.33 in 10.0 mi NW 12.7 mph 20.7 mph N/A   Overcast
8:15 AM 39.2 °F 30.8 °F 28.4 °F 65% 30.35 in 10.0 mi NW 15.0 mph 19.6 mph N/A   Overcast
8:55 AM 39.2 °F 32.5 °F 28.4 °F 65% 30.38 in 10.0 mi NW 10.4 mph 16.1 mph N/A   Overcast
9:15 AM 39.2 °F 31.2 °F 28.4 °F 65% 30.39 in 10.0 mi NW 13.8 mph 18.4 mph N/A   Mostly Cloudy
9:35 AM 41.0 °F 33.9 °F 26.6 °F 57% 30.41 in 10.0 mi NNW 12.7 mph - N/A   Scattered Clouds
9:56 AM 41.0 °F 32.8 °F 26.6 °F 57% 30.41 in 10.0 mi NNW 16.1 mph 20.7 mph N/A   Partly Cloudy
10:35 AM 42.8 °F 37.5 °F 26.6 °F 53% 30.43 in 10.0 mi NNW 9.2 mph 20.7 mph N/A   Clear
11:15 AM 42.8 °F 36.6 °F 26.6 °F 53% 30.43 in 10.0 mi NNW 11.5 mph - N/A   Clear
11:35 AM 42.8 °F 36.6 °F 24.8 °F 49% 30.43 in 10.0 mi NW 11.5 mph - N/A   Clear
11:55 AM 44.6 °F 39.7 °F 26.6 °F 49% 30.43 in 10.0 mi NNW 9.2 mph 16.1 mph N/A   Clear
12:15 PM 44.6 °F 38.8 °F 24.8 °F 46% 30.43 in 10.0 mi North 11.5 mph 17.3 mph N/A   Clear
12:35 PM 44.6 °F 38.8 °F 24.8 °F 46% 30.42 in 10.0 mi NNW 11.5 mph - N/A   Clear
1:15 PM 44.6 °F 40.2 °F 24.8 °F 46% 30.40 in 10.0 mi WNW 8.1 mph - N/A   Clear
1:35 PM 44.6 °F 41.4 °F 24.8 °F 46% 30.39 in 10.0 mi NNW 5.8 mph - N/A   Clear
1:55 PM 46.4 °F 44.3 °F 24.8 °F 43% 30.40 in 10.0 mi North 4.6 mph - N/A   Clear
2:15 PM 46.4 °F 43.5 °F 24.8 °F 43% 30.39 in 10.0 mi North 5.8 mph - N/A   Clear
2:35 PM 46.4 °F 42.9 °F 23.0 °F 40% 30.40 in 10.0 mi NNW 6.9 mph - N/A   Clear
2:55 PM 46.4 °F 42.4 °F 24.8 °F 43% 30.40 in 10.0 mi NW 8.1 mph - N/A   Clear
3:35 PM 46.4 °F 42.4 °F 24.8 °F 43% 30.41 in 10.0 mi WNW 8.1 mph - N/A   Clear
3:55 PM 46.4 °F 42.9 °F 21.2 °F 37% 30.42 in 10.0 mi WNW 6.9 mph - N/A   Clear
4:35 PM 44.6 °F 42.2 °F 23.0 °F 43% 30.43 in 10.0 mi WNW 4.6 mph - N/A   Clear
4:55 PM 44.6 °F 43.1 °F 23.0 °F 43% 30.44 in 10.0 mi West 3.5 mph - N/A   Clear
5:15 PM 42.8 °F - 24.8 °F 49% 30.44 in 10.0 mi Calm Calm - N/A   Clear
5:35 PM 41.0 °F - 24.8 °F 53% 30.44 in 10.0 mi Calm Calm - N/A   Clear
5:55 PM 39.2 °F - 24.8 °F 56% 30.45 in 10.0 mi Calm Calm - N/A   Clear
6:36 PM 37.4 °F - 24.8 °F 60% 30.45 in 10.0 mi Calm Calm - N/A   Clear
6:55 PM 37.4 °F 34.9 °F 24.8 °F 60% 30.45 in 10.0 mi South 3.5 mph - N/A   Clear
7:15 PM 37.4 °F - 24.8 °F 60% 30.45 in 10.0 mi Calm Calm - N/A   Clear
7:35 PM 37.4 °F - 24.8 °F 60% 30.46 in 10.0 mi Calm Calm - N/A   Clear
7:55 PM 35.6 °F - 24.8 °F 65% 30.46 in 10.0 mi Calm Calm - N/A   Clear
8:16 PM 35.6 °F - 24.8 °F 65% 30.46 in 10.0 mi Calm Calm - N/A   Clear
8:35 PM 37.4 °F - 24.8 °F 60% 30.47 in 10.0 mi Calm Calm - N/A   Clear
8:55 PM 35.6 °F - 23.0 °F 60% 30.47 in 10.0 mi Calm Calm - N/A   Clear
9:35 PM 35.6 °F - 24.8 °F 65% 30.48 in 10.0 mi Calm Calm - N/A   Clear
9:55 PM 33.8 °F - 24.8 °F 70% 30.48 in 10.0 mi Calm Calm - N/A   Clear
10:15 PM 33.8 °F - 24.8 °F 70% 30.48 in 10.0 mi Calm Calm - N/A   Clear
10:35 PM 33.8 °F - 24.8 °F 70% 30.49 in 10.0 mi Calm Calm - N/A   Clear
10:55 PM 33.8 °F - 24.8 °F 70% 30.48 in 10.0 mi Calm Calm - N/A   Clear
11:15 PM 33.8 °F - 24.8 °F 70% 30.48 in 10.0 mi Calm Calm - N/A   Clear
11:55 PM 33.8 °F - 24.8 °F 70% 30.48 in 10.0 mi Calm Calm - N/A   Clear